Wind_Speed
9 9 9 8 8 8 7 7 7 7 7 8 9 9 10 10 11 11 11 11 11 12 12 13 13 13 13 13 13 13 13 13 13 13 12 13 12 12 12 11 11 12 12
9 9 9 9 8 9 8 8 8 8 8 9 10 10 11 12 12 12 12 12 12 13 13 13 13 14 13 13 13 13 14 14 14 14 14 14 13 13 13 13 12 13 13
10 10 9 9 9 9 9 9 9 10 10 10 10 11 12 12 12 13 13 13 13 14 14 14 14 14 14 14 14 14 14 14 15 15 15 15 15 14 14 14 14 14 14
10 10 9 10 9 10 10 9 10 10 11 11 11 12 12 13 13 13 14 14 15 15 15 15 15 15 15 15 15 15 15 15 15 16 16 15 15 15 15 15 16 15 16
10 10 10 9 9 10 10 11 11 11 12 12 13 13 13 13 13 14 14 15 15 16 16 16 16 17 17 16 16 16 16 16 16 17 17 17 16 16 16 16 17 17 17
11 10 10 10 10 10 10 10 11 11 12 12 13 13 13 14 14 15 16 16 16 16 17 17 18 17 18 18 17 17 17 17 17 17 18 18 17 17 17 17 17 17 17
12 11 12 11 11 11 12 11 12 12 13 13 13 13 14 14 15 16 16 16 16 17 17 17 18 18 19 19 19 18 18 18 18 18 18 18 18 18 18 18 17 17 17
12 12 12 12 11 11 12 12 13 13 13 13 13 14 15 15 16 17 17 17 17 17 18 18 19 19 19 19 19 20 20 19 19 19 19 19 19 19 19 18 18 18 18
12 12 12 12 12 12 12 13 14 14 14 14 14 14 15 16 16 17 17 17 17 18 18 18 19 20 20 20 20 20 20 21 20 20 20 20 19 20 20 20 19 19 20
12 13 13 13 13 13 14 14 14 14 15 15 15 15 16 16 17 17 17 18 18 19 19 19 20 20 21 21 21 21 21 21 21 20 20 20 21 20 21 21 21 21 21
13 13 14 14 14 14 15 16 16 15 15 15 16 16 16 17 18 18 18 18 18 19 20 20 21 21 21 21 22 21 21 21 21 21 21 21 22 21 22 22 22 22 22
13 14 14 15 15 15 16 17 17 17 17 16 16 16 17 17 18 19 19 20 19 19 20 21 21 21 22 22 22 21 22 22 22 22 22 23 23 22 22 23 23 23 23
14 15 15 15 16 17 18 18 18 18 18 17 17 17 18 19 19 19 19 20 20 20 20 20 21 21 22 22 22 22 22 22 23 22 22 22 23 23 23 23 24 24 24
15 16 16 17 18 19 19 18 19 18 18 18 18 18 18 20 20 19 19 20 20 20 21 21 21 22 22 22 22 22 22 22 22 22 23 23 23 23 24 24 24 25 25
16 17 17 18 19 20 20 19 19 19 19 18 18 19 20 20 19 19 19 19 19 20 21 21 21 21 21 21 22 22 22 22 22 23 23 23 23 23 24 25 25 26 26
17 18 18 18 19 20 20 20 20 20 20 19 20 20 20 20 19 19 19 20 20 20 20 21 21 21 21 21 21 21 21 21 22 22 23 24 24 24 25 25 25 26 26
19 19 19 19 20 20 20 21 21 20 20 19 19 19 19 19 19 19 20 21 20 21 21 21 21 21 22 22 22 22 22 22 23 23 23 24 24 25 25 25 25 26 26
19 20 20 21 21 20 21 21 21 20 20 19 19 19 19 19 19 20 21 21 21 22 22 22 22 22 22 23 23 23 23 23 24 24 24 24 25 25 25 25 25 26 26
20 20 21 21 20 20 20 21 21 20 20 19 19 19 19 19 20 21 22 22 22 21 22 23 23 23 23 23 24 24 24 24 24 25 25 25 25 25 25 25 25 25 26
21 21 21 20 20 20 20 21 22 20 19 19 19 20 20 20 20 21 22 22 22 21 22 22 23 24 24 24 24 24 24 24 24 25 25 25 24 24 24 24 25 25 26
21 21 21 21 20 21 22 22 21 20 19 19 19 20 20 21 21 21 22 22 22 22 22 22 23 24 24 24 24 24 24 24 25 24 24 25 24 24 24 25 26 26 26
21 22 21 21 20 20 20 20 20 19 19 19 19 19 21 21 21 21 21 22 22 22 22 22 23 24 24 25 25 24 25 25 25 25 25 25 25 25 25 25 26 27 27
22 21 20 20 18 18 18 19 18 18 18 18 19 19 20 20 21 21 21 21 21 21 22 24 24 24 24 25 25 25 24 24 25 25 25 25 25 26 26 26 27 28 28
22 20 19 19 19 19 19 19 18 18 19 19 20 21 21 20 21 21 22 22 21 22 23 23 24 24 24 24 24 25 25 25 25 25 26 26 27 27 27 27 27 28 29
22 21 19 20 20 19 19 20 20 20 19 19 21 21 22 22 22 22 21 21 22 23 24 24 24 24 24 24 24 25 25 26 26 26 26 27 27 27 27 27 27 28 28
22 21 20 20 20 20 20 20 21 20 20 20 21 21 22 21 21 21 21 21 22 23 23 23 23 24 24 23 24 24 25 25 25 25 25 26 26 26 26 27 27 28 29
Wind_Direction
331 327 325 320 317 315 313 314 314 311 309 309 310 309 306 307 307 305 304 303 302 303 303 302 301 299 296 292 290 288 286 285 283 279 277 273 269 265 263 261 258 256 251
328 326 321 315 314 312 310 309 309 309 305 304 305 305 301 303 306 305 301 300 299 299 299 299 297 297 294 292 290 287 286 283 280 277 276 271 269 266 263 260 258 256 253
321 320 318 312 308 305 305 306 305 305 304 304 302 302 298 300 302 302 300 300 299 298 297 296 294 295 294 291 288 286 284 282 279 276 274 272 269 266 264 261 259 256 254
317 318 312 309 303 300 299 299 301 302 304 304 302 302 299 300 302 301 301 300 298 297 296 295 293 293 293 291 289 286 283 280 279 276 273 273 270 267 265 264 262 260 254
311 312 309 306 304 302 300 298 301 301 302 304 303 302 302 301 298 300 301 300 298 295 295 294 293 292 291 291 289 287 282 279 278 276 272 273 272 271 268 265 262 260 256
305 305 308 309 311 309 301 297 297 299 300 302 304 302 300 296 294 295 295 296 296 295 296 295 293 291 289 289 288 287 284 280 278 276 273 271 272 271 270 265 263 261 258
305 305 308 302 305 306 302 301 299 300 301 301 302 300 297 294 294 295 293 295 294 294 293 294 292 291 291 288 286 286 284 281 279 278 275 271 269 269 269 266 263 260 258
305 306 306 307 301 301 301 301 301 300 302 301 300 299 296 292 292 293 294 295 294 294 293 293 292 291 289 286 286 285 284 282 280 279 277 275 272 269 269 267 261 259 258
304 306 308 306 302 302 302 297 297 296 299 300 298 297 296 295 292 292 294 295 293 292 291 290 291 290 288 286 285 284 284 281 279 278 277 275 272 269 268 266 262 259 259
303 305 308 306 302 299 299 296 297 296 297 298 296 295 295 295 296 296 294 292 292 292 291 290 293 292 290 290 287 286 284 280 277 276 276 275 272 269 267 266 264 262 260
303 303 303 304 301 298 297 297 297 297 297 295 294 294 294 294 295 295 292 290 288 290 291 291 291 291 290 290 290 287 285 282 278 275 274 274 271 268 266 266 265 263 262
302 298 297 301 303 301 300 298 297 296 294 292 291 291 292 293 293 292 291 289 288 289 291 292 291 291 290 289 288 286 285 283 281 277 274 272 270 267 266 266 264 264 263
300 296 294 295 299 299 298 295 294 292 290 291 289 289 291 292 292 292 291 289 288 290 292 293 294 291 290 287 286 285 284 282 280 277 274 273 270 266 265 266 265 264 262
300 297 293 291 292 292 292 290 290 289 288 287 288 289 292 291 290 289 291 290 289 291 292 293 293 292 289 286 286 285 283 282 280 277 274 272 271 269 266 265 265 263 262
299 295 290 289 290 291 291 288 287 286 286 288 288 288 289 288 287 286 288 288 290 290 289 290 291 291 289 288 287 285 283 281 280 279 276 275 273 269 269 269 266 263 262
296 294 290 290 290 290 288 287 285 285 285 286 286 287 288 287 287 288 287 289 288 288 289 289 289 290 289 287 286 285 284 282 281 280 279 277 274 270 269 269 267 264 262
294 294 292 290 289 289 288 285 282 283 282 282 284 288 288 287 287 287 287 288 289 289 289 289 289 289 288 287 285 284 284 282 280 280 279 278 275 273 271 269 267 265 263
295 295 293 294 291 288 286 284 282 279 280 281 285 287 287 288 287 288 287 288 288 288 288 288 288 288 288 288 287 285 284 283 281 279 278 278 276 274 271 269 268 266 265
298 297 295 294 292 287 285 283 281 280 279 281 284 286 286 286 286 286 286 286 286 287 288 289 289 288 288 288 287 286 286 283 281 280 279 278 276 273 270 270 269 268 266
298 297 295 291 288 288 287 285 283 283 282 282 283 285 284 285 286 285 286 285 286 287 289 289 290 291 289 287 286 287 286 284 281 279 278 276 274 272 270 269 268 268 267
296 295 292 287 285 285 288 287 284 285 286 284 284 284 284 286 287 285 285 285 287 287 288 290 290 289 289 287 286 286 285 284 281 280 279 277 275 273 272 270 270 269 268
292 291 287 284 281 285 287 289 287 287 286 284 286 284 284 283 284 287 286 284 285 287 289 291 291 291 289 287 286 285 284 283 283 282 280 278 276 274 274 273 271 269 268
289 292 289 284 284 285 283 284 288 286 288 287 285 287 289 288 286 288 287 289 289 291 291 292 292 293 291 288 287 286 285 284 283 282 281 278 277 276 275 275 273 270 268
291 293 289 286 285 284 283 284 288 288 290 290 289 291 292 290 288 291 287 289 290 290 291 293 293 293 292 290 288 288 286 284 283 280 280 279 278 277 276 274 273 270 269
289 290 287 285 286 286 287 288 289 291 293 292 292 293 292 288 290 292 290 290 291 292 292 292 295 295 295 292 290 289 287 285 284 282 280 280 279 278 277 275 273 272 270
286 285 284 287 289 288 290 290 290 291 291 290 291 290 292 291 294 295 294 294 293 294 295 294 295 297 297 295 293 292 290 288 285 285 282 281 280 279 278 278 276 274 271
Height
5875 5875 5874 5874 5873 5873 5873 5872 5872 5871 5871 5871 5870 5870 5869 5869 5869 5869 5868 5868 5868 5868 5867 5867 5867 5867 5867 5867 5867 5867 5867 5867 5867 5867 5867 5867 5868 5868 5869 5869 5870 5870 5871
5874 5874 5873 5872 5872 5871 5871 5871 5870 5870 5870 5869 5868 5868 5867 5867 5867 5866 5866 5866 5866 5865 5865 5865 5864 5864 5864 5864 5864 5864 5864 5864 5864 5864 5864 5864 5865 5865 5866 5867 5867 5868 5868
5873 5872 5872 5870 5870 5870 5870 5869 5869 5868 5868 5867 5866 5866 5865 5865 5864 5864 5864 5863 5863 5863 5862 5862 5862 5862 5862 5862 5861 5861 5862 5862 5861 5861 5861 5862 5862 5862 5863 5864 5864 5865 5866
5872 5871 5870 5869 5869 5868 5868 5867 5867 5866 5866 5865 5864 5864 5863 5862 5862 5862 5861 5861 5860 5860 5860 5859 5859 5859 5859 5859 5859 5859 5859 5859 5858 5858 5858 5858 5859 5859 5860 5860 5861 5862 5863
5870 5870 5869 5868 5867 5866 5866 5865 5864 5864 5864 5863 5862 5862 5861 5860 5859 5859 5858 5858 5857 5857 5856 5856 5856 5856 5856 5856 5856 5856 5856 5855 5855 5855 5855 5855 5856 5856 5856 5857 5858 5858 5859
5869 5868 5867 5866 5865 5865 5864 5863 5862 5862 5861 5861 5860 5859 5858 5857 5857 5856 5856 5855 5854 5854 5853 5853 5852 5852 5852 5852 5852 5852 5852 5852 5852 5852 5852 5852 5852 5852 5853 5853 5854 5855 5856
5867 5866 5865 5864 5864 5863 5862 5861 5860 5859 5859 5858 5857 5856 5856 5855 5854 5853 5853 5852 5851 5851 5850 5849 5849 5848 5849 5848 5848 5848 5848 5848 5848 5848 5848 5848 5848 5849 5849 5849 5850 5851 5852
5864 5864 5863 5862 5862 5860 5859 5859 5858 5857 5856 5855 5854 5854 5853 5852 5851 5850 5849 5849 5848 5847 5847 5846 5845 5845 5844 5844 5844 5844 5844 5844 5844 5844 5844 5844 5844 5844 5845 5845 5846 5847 5847
5862 5862 5861 5860 5859 5858 5857 5856 5855 5854 5853 5853 5852 5851 5850 5849 5848 5847 5846 5845 5844 5844 5843 5842 5842 5841 5840 5840 5840 5839 5839 5839 5839 5839 5839 5840 5840 5840 5840 5841 5841 5842 5843
5860 5859 5859 5858 5857 5856 5854 5853 5853 5852 5851 5850 5849 5848 5847 5845 5844 5843 5842 5842 5841 5840 5840 5839 5838 5837 5837 5836 5835 5835 5834 5834 5834 5834 5834 5835 5835 5835 5835 5836 5837 5837 5838
5858 5857 5856 5855 5854 5853 5852 5851 5850 5849 5848 5846 5846 5845 5843 5842 5841 5840 5839 5838 5837 5837 5836 5835 5834 5833 5833 5832 5831 5830 5829 5829 5829 5830 5829 5830 5830 5830 5830 5831 5832 5832 5833
5855 5854 5853 5852 5851 5850 5849 5848 5847 5846 5845 5843 5842 5841 5840 5839 5838 5837 5836 5835 5834 5833 5832 5831 5830 5829 5828 5828 5827 5826 5825 5824 5824 5824 5824 5824 5824 5825 5825 5826 5827 5827 5828
5852 5851 5850 5849 5848 5847 5846 5845 5844 5842 5841 5840 5839 5838 5837 5836 5835 5833 5832 5831 5830 5830 5829 5828 5826 5825 5824 5823 5822 5821 5820 5819 5819 5819 5819 5819 5819 5819 5820 5820 5821 5822 5823
5849 5847 5846 5845 5844 5843 5842 5841 5839 5838 5837 5836 5835 5834 5833 5832 5831 5830 5829 5827 5826 5825 5824 5823 5822 5821 5820 5819 5817 5816 5815 5815 5814 5814 5814 5814 5814 5814 5814 5814 5815 5816 5817
5844 5843 5842 5841 5840 5839 5837 5836 5835 5834 5833 5832 5831 5830 5829 5828 5827 5826 5825 5824 5822 5821 5820 5819 5818 5817 5815 5814 5813 5812 5811 5810 5809 5809 5808 5808 5808 5808 5808 5808 5809 5810 5810
5840 5839 5838 5837 5836 5835 5833 5832 5831 5830 5829 5828 5827 5826 5825 5824 5823 5822 5821 5820 5818 5817 5815 5814 5813 5812 5811 5809 5808 5807 5806 5805 5804 5803 5803 5803 5802 5802 5802 5803 5803 5804 5804
5836 5835 5833 5832 5831 5830 5829 5827 5826 5825 5824 5823 5823 5821 5820 5820 5819 5818 5817 5816 5814 5812 5811 5810 5808 5807 5806 5805 5803 5802 5801 5800 5799 5798 5797 5797 5796 5796 5796 5796 5797 5797 5798
5832 5830 5829 5828 5827 5825 5824 5822 5821 5820 5820 5819 5818 5817 5815 5815 5814 5813 5813 5811 5810 5808 5807 5805 5804 5802 5801 5800 5798 5796 5795 5794 5793 5792 5791 5791 5790 5790 5790 5790 5790 5791 5791
5827 5826 5824 5823 5821 5820 5819 5818 5817 5815 5815 5814 5813 5812 5811 5810 5810 5809 5808 5807 5805 5803 5802 5800 5798 5797 5795 5794 5792 5791 5789 5788 5787 5786 5785 5785 5784 5784 5784 5784 5784 5784 5784
5823 5821 5819 5817 5816 5815 5815 5814 5812 5811 5810 5809 5809 5808 5807 5805 5804 5804 5803 5801 5800 5798 5797 5795 5793 5791 5790 5788 5786 5785 5784 5782 5781 5780 5779 5778 5778 5777 5777 5777 5777 5777 5777
5818 5816 5814 5813 5811 5810 5809 5808 5807 5806 5805 5805 5804 5803 5803 5801 5799 5798 5797 5796 5794 5793 5791 5789 5787 5785 5784 5782 5781 5779 5778 5776 5775 5774 5773 5772 5772 5771 5771 5770 5770 5770 5770
5813 5811 5810 5808 5806 5805 5805 5804 5802 5802 5801 5800 5799 5799 5798 5796 5795 5794 5791 5790 5788 5787 5785 5783 5782 5780 5778 5776 5775 5773 5772 5771 5769 5768 5767 5766 5765 5764 5764 5763 5763 5763 5763
5807 5806 5804 5802 5802 5801 5800 5799 5798 5798 5797 5795 5794 5794 5793 5791 5790 5788 5786 5785 5783 5781 5780 5778 5776 5774 5772 5770 5768 5767 5766 5765 5763 5762 5760 5759 5758 5757 5757 5756 5756 5756 5755
5803 5801 5800 5799 5797 5796 5796 5795 5795 5794 5793 5791 5789 5788 5788 5786 5784 5782 5781 5780 5778 5776 5774 5772 5770 5768 5766 5763 5761 5760 5759 5758 5757 5756 5754 5752 5751 5750 5749 5749 5748 5748 5747
5797 5796 5795 5794 5793 5792 5791 5790 5789 5789 5788 5787 5785 5784 5783 5781 5779 5778 5776 5774 5773 5771 5769 5767 5764 5762 5760 5757 5756 5754 5752 5751 5749 5749 5748 5746 5744 5743 5742 5741 5740 5740 5739
5792 5791 5790 5789 5788 5787 5786 5785 5784 5784 5782 5782 5781 5779 5778 5776 5774 5772 5771 5769 5768 5766 5764 5761 5759 5756 5754 5752 5749 5747 5746 5744 5742 5741 5740 5739 5738 5736 5735 5734 5733 5732 5731